Flag Weather past 2 weeks in Itumbiara, Goiás, Brazil

Now
64 °F

Passing clouds.


Feels Like: 64 °F
Forecast: 71 / 82 °F
Wind: 6 mph from Northeast

Location: Uberlandia Airport

Current Time: Nov 29, 2014 at 8:29:34 AM

Latest Report: Nov 29, 2014 at 7:00 AM


Visibility: N/A

Pressure: 30.07 "Hg

Humidity: 94%

Dew point: 63 °F

Location of ItumbiaraLocation

Historic Weather in Itumbiara — Graph

°F

Itumbiara temperature yesterday

Maximum temperature yesterday: 75 °F (at 3:00 PM)
Minimum temperature yesterday: 68 °F (at 2:00 AM)
Average temperature yesterday: 70 °F

Past Weeks' High & Low Weather Summary

 TemperatureHumidityPressure
High88 °F (Nov 21, 4:00 PM)100% (Nov 16, 4:00 AM)30.12 "Hg (Nov 16, 4:00 AM)
Low63 °F (Nov 16, 7:00 AM)29% (Nov 21, 4:00 PM)29.89 "Hg (Nov 14, 3:00 PM)
Average73 °F72%30.01 "Hg
* Reported Nov 14 7:00 AM — Nov 29 7:00 AM, Itumbiara, Weather by CustomWeather, © 2014

Note: Actual official high and low records may vary slightly from our data, if they occured in-between our weather recording intervals... More about our weather records

Advertising

Itumbiara weather history for previous 24 hours

 ConditionsComfort  
Time TempWeatherWind HumidityBarometerVisibility
7:00 AM
Nov 29
64 °FPassing clouds.6 mph94%30.07 "HgN/A
6:00 AM64 °FClear.5 mph94%30.04 "Hg10 mi
5:00 AM64 °FPassing clouds.6 mph94%30.01 "HgN/A
4:00 AM64 °FFog.6 mph94%30.04 "Hg3 mi
3:00 AM64 °FFog.8 mph94%30.04 "Hg0 mi
2:00 AM66 °FLight rain. Passing clouds.9 mph94%30.07 "Hg5 mi
1:00 AM66 °FLight rain. Passing clouds.8 mph94%30.09 "Hg5 mi
12:00 AM66 °FLight rain. Fog.10 mph94%30.12 "Hg1 mi
11:00 PM
Nov 28
68 °FLight rain. Partly cloudy.8 mph94%30.09 "HgN/A
10:00 PM68 °FLight rain. Partly cloudy.3 mph94%30.09 "HgN/A
9:00 PM68 °FLight rain. Passing clouds.3 mph94%30.07 "HgN/A
8:00 PM68 °FLight rain. Scattered clouds.3 mph88%30.04 "HgN/A
7:00 PM68 °FLight rain. Scattered clouds.5 mph94%30.01 "HgN/A
6:00 PM70 °FThunderstorms. Broken clouds.16 mph88%N/AN/A
5:00 PM72 °FPassing clouds.5 mph83%29.98 "HgN/A
4:00 PM72 °FRain. Passing clouds.6 mph83%30.01 "Hg3 mi
3:47 PM72 °FRain. Scattered clouds.5 mph83%30.01 "HgN/A
3:00 PM75 °FScattered clouds.5 mph74%30.04 "HgN/A
2:00 PM72 °FLight rain. Partly sunny.6 mph83%30.07 "HgN/A
1:45 PM73 °FScattered showers. Partly sunny.6 mph83%30.07 "HgN/A
1:00 PM72 °FScattered clouds.3 mph83%30.07 "HgN/A
12:00 PM72 °FMostly cloudy.5 mph83%30.09 "HgN/A
11:00 AM70 °FCloudy.7 mph94%30.09 "HgN/A
10:00 AM68 °FDrizzle. Low clouds.9 mph94%30.07 "HgN/A
9:00 AM70 °FLight rain. Mostly cloudy.6 mph88%30.07 "Hg1 mi
8:00 AM68 °FFog.6 mph94%30.04 "Hg3 mi
Weather by CustomWeather, © 2014

See weather overviewHow to use our weather pages